Startpagina
METAR-TAF:

METAR-TAF

Vliegvelden :

Productieplatform

Awg-1, Nederland

breedte: 53-29-30N, lengte: 5-56-30E, hoogte: 33 m

Actueel weer

Dit bericht is 20 minuten geleden gemaakt, om 21:55 UTC
Wind 13 kt uit het oosten, variërend tussen het oostnoordoosten en het oostzuidoosten
Temperatuur 21°C
Vochtigheid 69%
Druk 1014 hPa
Zicht 10 km of meer

METAR: EHMA 162155Z AUTO 10013KT 060V120 9999 NCD 21/15 Q1014 W///H///

Tijdstip: 00:15 (22:15 UTC)


TAF: ontbreekt

Waarnemingen en weersverwachtingen van meer dan 4000 vliegvelden (METAR en TAF).

De beschikbare stations zijn de gele en rode punten op de kaart.

Ga met uw muis naar het station om de naam te zien.

Klik dan om waarnemingen en weersverwachtingen te zien.

kaart wijzigen: klik op de groene knoppen met een zwart kruis om in te zoomen, op de groene knop met een streepje om uit te zoomen of op de groene pijlen voor aangrenzende kaarten.


METAR-TAF: